Вернуться в каталог

THOR ABLESTAR R/B

АктивенPO
NORAD 1508·ROCKET BODY·🇺🇸 United States

Запущен Aug 13, 1965 с Vandenberg Space Force Base

Loading…

Ближайшие Пролёты (ближайшие 24 часа)

TLE

СвежийSource: Space-Track

Эпоха: Sep 14, 2026, 15:10 UTC

1 01508U 65065B   26257.63262623  .00000017  00000-0  15443-4 0  9997
2 01508  90.1286 308.8626 0043906  80.4659  73.0373 13.36099106977351

Отслеживайте THOR ABLESTAR R/B в реальном времени с AllMySat

Download on the App Store